User: anonymous   Login
Location: Unspecified
(0.0000°N, 0.0000°E)
Time: 00:59:43
(UTC+00:00)
Language:

STARLINK-11382 [DTC] - Orbit

View from above orbital plane
View from above orbital plane
View from above satellite
View from above satellite

Ground track
Ground track

The orbit is defined by the following mean orbital elements,

1 62881U          26145.16642757 +.00000000 +00000-0 +22423-2 0 00009
2 62881  43.0000  80.5491 0001198 282.3045  77.7689 15.70898237    08
Epoch (UTC): 25 May 2026 03:59:39
Eccentricity: 0.0001198
inclination: 43.0000°
perigee height: 356 km
apogee height: 357 km
right ascension of ascending node: 80.5491°
argument of perigee: 282.3045°
revolutions per day: 15.70898237
mean anomaly at epoch: 77.7689°

The dashed part of the orbit path shows where the satellite is in the earth's shadow,  

DLR